Find Starlink 3926

NORAD ID: 52543 Int'l Des: 2022-051 Owner: SPXS Country: US Constellation: starlink operational
LEOCIRCULAR

Live Position

Loading 3D Globe...

About Starlink 3926

Description loading...

Upcoming Passes

Passes for default location (London). Set your location on the main map for personalized predictions.

Altitude History

Loading altitude history...

Two-Line Element Set

1 52543U 22051L 26124.59828505 -.00000482 00000-0 -12199-4 0 9998
2 52543 53.2162 238.1353 0001176 94.3244 265.7882 15.08854480219885
Epoch: May 4, 2026 • Age: 5 hours

Current Status

Altitude 549.1 km
Velocity 7.59 km/s
Sub-Earth Point -29.30°S, 65.5°E
Launch Date May 13, 2022
Age 3.9 years
Type internet

Technical Details

Classification Payload
Mass 297.00 kg
Dry Mass 275.00 kg
Total Mass 297.00 kg
Length 0.20 m
Diameter 2.80 m
Span 9.00 m
Shape Box + pan
Manufacturer SPXS
Bus Type Starlink
Phase Status In Orbit
Owner/State SPXS/US

Most Searched